Dubrovnik, Croatia

3:15 PM CET on February 12, 2016 (GMT +0100)
Dubrovnik

Weather History for 14474 - January, 2014

Change the Weather History Date:

Saturday, January 11, 2014

  Actual Average Record
Temperature  
Mean Temperature 52 °F -  
Max Temperature 60 °F - - ()
Min Temperature 44 °F - - ()
Degree Days  
Heating Degree Days 13    
Growing Degree Days 2 (Base 50)    
Moisture  
Dew Point 46 °F    
Average Humidity 78    
Maximum Humidity 100    
Minimum Humidity 56    
Precipitation  
Precipitation 0.00 in - - ()
Sea Level Pressure  
Sea Level Pressure 30.21 in    
Wind  
Wind Speed 7 mph ()    
Max Wind Speed 10 mph    
Max Gust Speed -    
Visibility 8.2 miles    
Events      
T = Trace of Precipitation, MM = Missing Value Source: Averaged Metar Reports

Daily Weather History Graph

Daily Weather History Graph

Search for Another Location

Airport or City:

Trip Planner

Search our weather history database for the weather conditions in past years. The results will help you decide how hot, cold, wet, or windy it might be!

Date:

Astronomy

Jan. 11, 2014 Rise Set
Actual Time 7:15 AM CET 4:34 PM CET
Civil Twilight 6:44 AM CET 5:05 PM CET
Nautical Twilight 6:09 AM CET 5:40 PM CET
Astronomical Twilight 5:35 AM CET 6:14 PM CET
Moon 1:06 PM CET (1/11) 3:02 AM CET (1/11)
Length of Visible Light 10h 21m
Length of Day
9h 18m
Waxing Gibbous, 81% of the Moon is Illuminated
Jan 11
Waxing Gibbous
Jan 16
Full
Jan 24
Last Quarter
Jan 30
New
Feb 6
First Quarter

Hourly Weather History & Observations

Time (CET) Temp. Windchill Dew Point Humidity Pressure Visibility Wind Dir Wind Speed Gust Speed Precip Events Conditions
12:00 AM 51.8 °F - 44.6 °F 76% 30.18 in - North 8.1 mph - N/A   Clear
12:30 AM 51.8 °F - 44.6 °F 76% 30.18 in - NNE 4.6 mph - N/A   Clear
1:00 AM 53 °F - 44 °F 61% 30.20 in 12 mi NNE 8.9 mph - -   Clear
1:00 AM 53.6 °F - 44.6 °F 72% 30.18 in - NNE 9.2 mph - N/A   Clear
1:30 AM 51.8 °F - 42.8 °F 71% 30.18 in - NNE 6.9 mph - N/A   Clear
2:00 AM 51.8 °F - 42.8 °F 71% 30.18 in - NNE 10.4 mph - N/A   Clear
2:30 AM 50.0 °F - 42.8 °F 76% 30.18 in - NE 8.1 mph - N/A   Clear
3:00 AM 50.0 °F - 41.0 °F 71% 30.18 in - NE 6.9 mph - N/A   Clear
3:30 AM 46.4 °F 42.4 °F 42.8 °F 87% 30.18 in - East 8.1 mph - N/A   Clear
4:00 AM 49 °F - 42 °F 69% 30.21 in 12 mi NE 6.7 mph - -  
4:00 AM 48.2 °F - 41.0 °F 76% 30.18 in - ENE 8.1 mph - N/A   Clear
4:30 AM 44.6 °F 40.2 °F 41.0 °F 87% 30.18 in - East 8.1 mph - N/A   Clear
5:00 AM 50.0 °F - 41.0 °F 71% 30.18 in - NE 9.2 mph - N/A   Clear
5:30 AM 50.0 °F - 41.0 °F 71% 30.18 in 6.2 mi NE 8.1 mph - N/A   Partly Cloudy
6:00 AM 50.0 °F - 41.0 °F 71% 30.21 in 6.2 mi NE 6.9 mph - N/A   Partly Cloudy
6:30 AM 50.0 °F - 41.0 °F 71% 30.21 in 6.2 mi ENE 8.1 mph - N/A   Mostly Cloudy
7:00 AM 51 °F - 42 °F 63% 30.23 in 16 mi ENE 8.9 mph - -   Mostly Cloudy
7:00 AM 48.2 °F - 41.0 °F 76% 30.21 in 6.2 mi ENE 8.1 mph - N/A   Mostly Cloudy
7:30 AM 46.4 °F 42.9 °F 42.8 °F 87% 30.21 in 6.2 mi ENE 6.9 mph - N/A   Mostly Cloudy
8:00 AM 46.4 °F 42.9 °F 42.8 °F 87% 30.21 in 6.2 mi East 6.9 mph - N/A   Mostly Cloudy
8:30 AM 50.0 °F - 42.8 °F 76% 30.21 in 6.2 mi East 9.2 mph - N/A   Scattered Clouds
9:00 AM 50.0 °F - 42.8 °F 76% 30.24 in 6.2 mi East 9.2 mph - N/A   Partly Cloudy
9:30 AM 51.8 °F - 42.8 °F 71% 30.24 in 6.2 mi East 6.9 mph - N/A   Partly Cloudy
10:00 AM 56 °F - 45 °F 56% 30.25 in 16 mi NE 6.7 mph - -   Mostly Cloudy
10:00 AM 55.4 °F - 44.6 °F 67% 30.24 in - NE 6.9 mph - N/A   Clear
10:30 AM 57.2 °F - 46.4 °F 67% 30.24 in - ENE 5.8 mph - N/A   Clear
11:00 AM 57.2 °F - 46.4 °F 67% 30.24 in 6.2 mi ENE 5.8 mph - N/A   Partly Cloudy
11:30 AM 59.0 °F - 46.4 °F 63% 30.24 in 6.2 mi ENE 4.6 mph - N/A   Scattered Clouds
12:00 PM 60.8 °F - 50.0 °F 68% 30.21 in 6.2 mi Variable 4.6 mph - N/A   Scattered Clouds
12:30 PM 59.0 °F - 50.0 °F 72% 30.21 in 6.2 mi South 8.1 mph - N/A   Scattered Clouds
1:00 PM 59 °F - 51 °F 66% 30.21 in 19 mi South 6.7 mph - -   Mostly Cloudy
1:00 PM 59.0 °F - 51.8 °F 77% 30.21 in 6.2 mi South 8.1 mph - N/A   Scattered Clouds
1:30 PM 59.0 °F - 51.8 °F 77% 30.21 in 6.2 mi SSE 8.1 mph - N/A   Scattered Clouds
2:00 PM 57.2 °F - 50.0 °F 77% 30.21 in 6.2 mi South 9.2 mph - N/A   Scattered Clouds
2:30 PM 57.2 °F - 50.0 °F 77% 30.21 in 6.2 mi SSE 6.9 mph - N/A   Partly Cloudy
3:00 PM 57.2 °F - 50.0 °F 77% 30.21 in 6.2 mi SE 6.9 mph - N/A   Partly Cloudy
3:30 PM 57.2 °F - 50.0 °F 77% 30.21 in 6.2 mi SSE 5.8 mph - N/A   Partly Cloudy
4:00 PM 55 °F - 50 °F 79% 30.21 in 19 mi SE 4.5 mph - -   Scattered Clouds
4:00 PM 55.4 °F - 50.0 °F 82% 30.21 in 6.2 mi SE 5.8 mph - N/A   Partly Cloudy
4:30 PM 53.6 °F - 50.0 °F 88% 30.21 in 6.2 mi ESE 5.8 mph - N/A   Partly Cloudy
5:00 PM 53.6 °F - 50.0 °F 88% 30.18 in 6.2 mi East 6.9 mph - N/A   Partly Cloudy
5:30 PM 53.6 °F - 50.0 °F 88% 30.18 in 6.2 mi East 6.9 mph - N/A   Scattered Clouds
6:00 PM 53.6 °F - 50.0 °F 88% 30.18 in 6.2 mi East 6.9 mph - N/A   Mostly Cloudy
6:30 PM 53.6 °F - 48.2 °F 82% 30.18 in 6.2 mi East 8.1 mph - N/A   Scattered Clouds
7:00 PM 51 °F - 48 °F 84% 30.22 in 16 mi East 4.5 mph - -   Scattered Clouds
7:00 PM 50.0 °F - 48.2 °F 94% 30.21 in 6.2 mi East 3.5 mph - N/A   Partly Cloudy
7:30 PM 51.8 °F - 48.2 °F 88% 30.21 in 6.2 mi East 5.8 mph - N/A   Partly Cloudy
8:00 PM 50.0 °F - 46.4 °F 87% 30.21 in - East 5.8 mph - N/A   Clear
8:30 PM 50.0 °F - 46.4 °F 87% 30.21 in 6.2 mi East 4.6 mph - N/A   Partly Cloudy
9:00 PM 48.2 °F - 46.4 °F 93% 30.21 in 6.2 mi East 5.8 mph - N/A   Partly Cloudy
9:30 PM 48.2 °F - 46.4 °F 93% 30.21 in 6.2 mi East 6.9 mph - N/A   Partly Cloudy
10:00 PM 49 °F - 46 °F 83% 30.23 in 16 mi East 6.7 mph - -   Scattered Clouds
10:00 PM 48.2 °F - 46.4 °F 93% 30.21 in 6.2 mi East 6.9 mph - N/A   Partly Cloudy
10:30 PM 46.4 °F 43.5 °F 46.4 °F 100% 30.21 in - East 5.8 mph - N/A   Clear
11:00 PM 48.2 °F - 46.4 °F 93% 30.21 in - East 6.9 mph - N/A   Clear
11:30 PM 48.2 °F - 44.6 °F 87% 30.21 in - East 6.9 mph - N/A   Clear